TimeCDT,TemperatureF,Dew PointF,Humidity,Sea Level PressureIn,VisibilityMPH,Wind Direction,Wind SpeedMPH,Gust SpeedMPH,PrecipitationIn,Events,Conditions,WindDirDegrees,DateUTC
12:15 AM,38.1,36.7,95,29.86,1.2,Calm,Calm,-,N/A,,Scattered Clouds,0,2013-03-31 05:15:00
12:35 AM,36.9,35.8,96,29.85,1.0,Calm,Calm,-,N/A,,Overcast,0,2013-03-31 05:35:00
12:55 AM,36.9,35.8,96,29.85,2.0,Calm,Calm,-,N/A,,Overcast,0,2013-03-31 05:55:00
1:15 AM,37.6,36.7,97,29.85,1.8,Calm,Calm,-,N/A,,Overcast,0,2013-03-31 06:15:00
1:35 AM,36.9,36.0,97,29.84,1.0,Calm,Calm,-,N/A,,Overcast,0,2013-03-31 06:35:00
1:55 AM,37.8,36.9,97,29.84,0.8,Calm,Calm,-,N/A,,Overcast,0,2013-03-31 06:55:00
2:15 AM,37.6,36.7,97,29.84,0.5,Calm,Calm,-,N/A,Fog,Fog,0,2013-03-31 07:15:00
2:35 AM,37.6,36.7,97,29.84,0.2,Calm,Calm,-,N/A,Fog,Fog,0,2013-03-31 07:35:00
2:55 AM,37.4,36.5,97,29.84,1.8,West,4.6,-,N/A,,Overcast,260,2013-03-31 07:55:00
3:15 AM,36.5,35.6,97,29.84,3.0,West,5.8,-,N/A,,Overcast,270,2013-03-31 08:15:00
3:35 AM,35.8,34.9,97,29.84,4.0,West,4.6,-,N/A,,Overcast,270,2013-03-31 08:35:00
3:55 AM,35.2,34.2,96,29.84,5.0,Calm,Calm,-,N/A,,Mostly Cloudy,0,2013-03-31 08:55:00
4:15 AM,34.5,33.1,94,29.83,5.0,WNW,3.5,-,N/A,,Clear,290,2013-03-31 09:15:00
4:35 AM,34.3,32.9,94,29.83,7.0,Calm,Calm,-,N/A,,Clear,0,2013-03-31 09:35:00
4:55 AM,34.0,32.9,96,29.83,5.0,Calm,Calm,-,N/A,,Clear,0,2013-03-31 09:55:00
5:15 AM,33.8,32.5,95,29.82,4.0,WNW,3.5,-,N/A,,Clear,300,2013-03-31 10:15:00
5:35 AM,32.5,31.6,96,29.82,7.0,West,5.8,-,N/A,,Clear,270,2013-03-31 10:35:00
5:55 AM,33.3,31.3,92,29.82,10.0,West,4.6,-,N/A,,Clear,260,2013-03-31 10:55:00
6:15 AM,32.9,30.9,92,29.82,10.0,West,3.5,-,N/A,,Clear,260,2013-03-31 11:15:00
6:35 AM,32.5,30.6,92,29.81,10.0,Calm,Calm,-,N/A,,Clear,0,2013-03-31 11:35:00
6:55 AM,32.4,30.4,92,29.82,7.0,Calm,Calm,-,N/A,,Clear,0,2013-03-31 11:55:00
7:15 AM,32.5,30.4,92,29.81,7.0,Calm,Calm,-,N/A,,Clear,0,2013-03-31 12:15:00
7:35 AM,33.1,30.7,91,29.81,7.0,Calm,Calm,-,N/A,,Clear,0,2013-03-31 12:35:00
8:35 AM,32.9,31.6,95,29.83,4.0,West,9.2,-,N/A,,Overcast,280,2013-03-31 13:35:00
8:55 AM,33.3,32.0,95,29.82,4.0,West,9.2,-,N/A,,Overcast,260,2013-03-31 13:55:00
9:15 AM,34.0,32.0,92,29.82,5.0,West,9.2,16.1,N/A,,Overcast,270,2013-03-31 14:15:00
9:55 AM,35.1,32.0,89,29.82,5.0,West,9.2,-,N/A,,Overcast,270,2013-03-31 14:55:00
10:15 AM,35.2,32.0,88,29.82,5.0,West,10.4,-,N/A,,Overcast,280,2013-03-31 15:15:00
10:35 AM,35.6,32.0,87,29.82,5.0,West,8.1,-,N/A,,Overcast,270,2013-03-31 15:35:00
10:55 AM,36.0,32.0,86,29.82,5.0,West,11.5,18.4,N/A,,Overcast,280,2013-03-31 15:55:00
11:15 AM,36.7,32.0,83,29.82,5.0,WNW,16.1,19.6,N/A,,Haze,290,2013-03-31 16:15:00
11:35 AM,37.4,32.2,81,29.82,5.0,West,11.5,-,N/A,,Haze,270,2013-03-31 16:35:00
11:55 AM,37.6,32.5,82,29.83,5.0,West,15.0,-,N/A,,Haze,280,2013-03-31 16:55:00
12:15 PM,38.5,32.0,78,29.83,7.0,West,17.3,23.0,N/A,,Overcast,280,2013-03-31 17:15:00
12:35 PM,39.7,32.2,74,29.83,7.0,West,9.2,-,N/A,,Overcast,280,2013-03-31 17:35:00
12:55 PM,40.1,31.1,70,29.83,10.0,West,21.9,28.8,N/A,,Overcast,280,2013-03-31 17:55:00
1:15 PM,40.3,30.6,68,29.83,10.0,WNW,20.7,28.8,N/A,,Overcast,300,2013-03-31 18:15:00
1:35 PM,39.9,30.4,69,29.84,10.0,West,20.7,26.5,N/A,,Overcast,280,2013-03-31 18:35:00
1:55 PM,38.1,30.9,75,29.84,10.0,West,18.4,25.3,N/A,,Overcast,280,2013-03-31 18:55:00
2:15 PM,38.5,30.6,73,29.84,10.0,West,17.3,25.3,N/A,,Overcast,280,2013-03-31 19:15:00
2:35 PM,39.2,30.9,72,29.84,10.0,West,13.8,21.9,N/A,,Overcast,280,2013-03-31 19:35:00
2:55 PM,39.7,30.6,70,29.84,10.0,WNW,17.3,25.3,N/A,,Overcast,300,2013-03-31 19:55:00
3:15 PM,39.7,29.7,67,29.83,10.0,WNW,11.5,23.0,N/A,,Overcast,290,2013-03-31 20:15:00
3:35 PM,42.1,29.8,62,29.83,10.0,West,19.6,25.3,N/A,,Mostly Cloudy,280,2013-03-31 20:35:00
3:55 PM,41.9,28.0,58,29.83,10.0,West,19.6,27.6,N/A,,Mostly Cloudy,280,2013-03-31 20:55:00
4:15 PM,42.1,28.0,58,29.84,10.0,WNW,17.3,27.6,N/A,,Mostly Cloudy,300,2013-03-31 21:15:00
4:35 PM,41.0,26.1,55,29.84,10.0,WNW,18.4,28.8,N/A,,Mostly Cloudy,300,2013-03-31 21:35:00
4:55 PM,41.7,27.1,56,29.84,10.0,WNW,23.0,26.5,N/A,,Mostly Cloudy,290,2013-03-31 21:55:00
5:15 PM,41.5,25.3,53,29.85,10.0,WNW,17.3,24.2,N/A,,Mostly Cloudy,290,2013-03-31 22:15:00
5:35 PM,41.0,25.5,54,29.85,10.0,WNW,16.1,24.2,N/A,,Mostly Cloudy,300,2013-03-31 22:35:00
5:55 PM,40.3,24.6,54,29.86,10.0,WNW,16.1,21.9,N/A,,Scattered Clouds,290,2013-03-31 22:55:00
6:15 PM,40.3,23.0,50,29.86,10.0,West,13.8,29.9,N/A,,Scattered Clouds,280,2013-03-31 23:15:00
6:35 PM,39.6,22.6,51,29.86,10.0,WNW,17.3,24.2,N/A,,Scattered Clouds,290,2013-03-31 23:35:00
6:55 PM,39.2,21.4,49,29.87,10.0,West,19.6,26.5,N/A,,Scattered Clouds,280,2013-03-31 23:55:00
7:15 PM,37.9,22.5,54,29.89,10.0,WNW,11.5,17.3,N/A,,Scattered Clouds,290,2013-04-01 00:15:00
7:35 PM,37.4,21.9,54,29.90,10.0,WNW,16.1,-,N/A,,Mostly Cloudy,290,2013-04-01 00:35:00
7:55 PM,36.3,22.5,57,29.90,10.0,WNW,9.2,-,N/A,,Scattered Clouds,300,2013-04-01 00:55:00
8:15 PM,35.6,22.1,58,29.91,10.0,WNW,9.2,-,N/A,,Scattered Clouds,290,2013-04-01 01:15:00
8:35 PM,35.1,23.0,61,29.92,10.0,WNW,8.1,-,N/A,,Clear,300,2013-04-01 01:35:00
8:55 PM,34.7,21.9,60,29.93,10.0,WNW,6.9,-,N/A,,Clear,300,2013-04-01 01:55:00
9:15 PM,34.3,21.4,59,29.94,10.0,WNW,9.2,-,N/A,,Clear,300,2013-04-01 02:15:00
9:35 PM,34.3,21.9,60,29.95,10.0,WNW,11.5,-,N/A,,Clear,290,2013-04-01 02:35:00
9:55 PM,33.8,21.9,62,29.96,10.0,WNW,10.4,-,N/A,,Clear,300,2013-04-01 02:55:00
10:15 PM,33.3,21.2,61,29.97,10.0,WNW,11.5,17.3,N/A,,Clear,290,2013-04-01 03:15:00
10:35 PM,32.9,21.0,62,29.97,10.0,WNW,10.4,-,N/A,,Clear,300,2013-04-01 03:35:00
10:55 PM,32.9,19.9,59,29.98,10.0,WNW,10.4,18.4,N/A,,Clear,290,2013-04-01 03:55:00
11:15 PM,32.2,20.7,63,29.99,10.0,WNW,10.4,-,N/A,,Clear,300,2013-04-01 04:15:00
11:35 PM,32.0,20.8,63,29.99,10.0,WNW,11.5,-,N/A,,Clear,300,2013-04-01 04:35:00
11:55 PM,32.0,20.3,62,29.99,10.0,WNW,16.1,21.9,N/A,,Clear,300,2013-04-01 04:55:00